FW3090 Weather Reports


Display with metric or nautical units.
time (UTC)temp
F
wind
direction
speed
MPH
gust
MPH
rain 1hr
in
rain 24hr
in
rain mn
in
humidity
%
barometer
mb
20260906125610 66 144 1.0 6.0 0.00 0.00 0.00 91 1020.0
20260906125103 66 95 2.0 4.0 0.00 0.00 0.00 91 1020.0
20260906124558 66 94 2.0 4.0 0.00 0.00 0.00 91 1019.9
20260906124052 66 105 1.0 3.0 0.00 0.00 0.00 91 1019.8
20260906123545 66 101 1.0 5.0 0.00 0.00 0.00 91 1019.9
20260906123040 66 93 0.0 5.0 0.00 0.00 0.00 91 1019.9
20260906122533 66 92 0.0 0.0 0.00 0.00 0.00 91 1020.0
20260906122247 66 87 0.0 0.0 0.00 0.00 0.00 91 1019.9
20260906121521 66 87 0.0 0.0 0.00 0.00 0.00 91 1019.7
20260906121016 66 87 0.0 0.0 0.00 0.00 0.00 91 1019.7
20260906120509 66 87 0.0 0.0 0.00 0.00 0.00 91 1019.7
20260906120005 66 87 0.0 0.0 0.00 0.00 0.00 91 1019.5
20260906115457 66 87 0.0 0.0 0.00 0.00 0.00 90 1019.4
20260906114951 66 87 0.0 0.0 0.00 0.00 0.00 90 1019.2
20260906114445 66 87 0.0 0.0 0.00 0.00 0.00 90 1019.1
20260906113940 66 87 0.0 0.0 0.00 0.00 0.00 90 1019.0
20260906113440 66 87 0.0 0.0 0.00 0.00 0.00 90 1018.8
20260906112939 66 87 0.0 1.0 0.00 0.00 0.00 90 1018.7
20260906112439 66 87 1.0 2.0 0.00 0.00 0.00 90 1018.6
20260906111937 66 87 1.0 2.0 0.00 0.00 0.00 90 1018.6
20260906111437 66 87 1.0 4.0 0.00 0.00 0.00 90 1018.6
20260906110937 66 87 0.0 4.0 0.00 0.00 0.00 90 1018.4
20260906110437 66 149 0.0 0.0 0.00 0.00 0.00 90 1018.5
20260906105938 66 149 0.0 0.0 0.00 0.00 0.00 90 1018.5
20260906105439 65 149 0.0 0.0 0.00 0.00 0.00 90 1018.5
20260906104939 65 149 0.0 0.0 0.00 0.00 0.00 90 1018.5
20260906104433 65 149 0.0 0.0 0.00 0.00 0.00 89 1018.6
20260906103933 65 149 0.0 0.0 0.00 0.00 0.00 89 1018.8
20260906103433 65 149 0.0 0.0 0.00 0.00 0.00 89 1018.8
20260906102933 65 149 0.0 0.0 0.00 0.00 0.00 89 1018.6
20260906102433 66 149 0.0 0.0 0.00 0.00 0.00 89 1018.7
20260906101933 66 149 0.0 0.0 0.00 0.00 0.00 89 1018.6
20260906101434 66 149 0.0 0.0 0.00 0.00 0.00 89 1018.6
20260906100933 66 149 0.0 0.0 0.00 0.00 0.00 89 1018.4
20260906100433 66 149 0.0 0.0 0.00 0.00 0.00 89 1018.3
20260906095931 66 149 0.0 0.0 0.00 0.00 0.00 89 1018.2
20260906095429 66 149 0.0 0.0 0.00 0.00 0.00 89 1018.0
20260906094929 67 149 0.0 0.0 0.00 0.00 0.00 89 1017.8
20260906094430 67 149 0.0 0.0 0.00 0.00 0.00 89 1017.8
20260906094149 67 150 1.0 3.0 0.00 0.00 0.00 90 1017.8
20260906093648 67 149 1.0 3.0 0.00 0.00 0.00 90 1017.8
20260906092927 67 149 0.0 3.0 0.00 0.00 0.00 90 1017.8
20260906092649 67 96 0.0 2.0 0.00 0.00 0.00 90 1017.9
20260906091925 67 96 1.0 6.0 0.00 0.00 0.00 90 1017.7
20260906091423 67 96 2.0 6.0 0.00 0.00 0.00 90 1017.6
20260906090923 67 59 3.0 6.0 0.00 0.00 0.00 90 1017.8
20260906090646 67 101 3.0 8.0 0.00 0.00 0.00 90 1017.9
20260906085921 67 90 3.0 8.0 0.00 0.00 0.00 90 1017.7
20260906085421 67 94 3.0 7.0 0.00 0.00 0.00 90 1017.7
20260906084915 67 90 3.0 7.0 0.00 0.00 0.00 91 1017.8
20260906084409 67 90 3.0 7.0 0.00 0.00 0.00 91 1017.8
20260906083903 67 69 3.0 7.0 0.00 0.00 0.00 91 1017.9
20260906083356 67 96 2.0 9.0 0.00 0.00 0.00 91 1017.9
20260906082850 67 92 3.0 9.0 0.00 0.00 0.00 91 1017.9
20260906082601 67 82 4.0 8.0 0.00 0.00 0.00 91 1017.9
20260906081839 67 84 3.0 7.0 0.00 0.00 0.00 91 1017.9
20260906081332 67 76 3.0 8.0 0.00 0.00 0.00 91 1017.8
20260906080828 66 97 3.0 6.0 0.00 0.00 0.00 90 1018.0
20260906080320 66 91 2.0 4.0 0.00 0.00 0.00 90 1018.2
20260906075815 66 94 2.0 3.0 0.00 0.00 0.00 90 1018.1
20260906075308 66 94 2.0 3.0 0.00 0.00 0.00 90 1018.1
20260906074803 67 94 2.0 3.0 0.00 0.00 0.00 90 1017.9
20260906074257 67 95 2.0 4.0 0.00 0.00 0.00 90 1017.9
20260906073750 67 95 2.0 4.0 0.00 0.00 0.00 90 1018.0
20260906073245 67 96 1.0 4.0 0.00 0.00 0.00 90 1018.1
20260906072738 67 94 2.0 4.0 0.00 0.00 0.00 90 1018.1
20260906072232 67 94 2.0 4.0 0.00 0.00 0.00 90 1018.1
20260906071726 67 92 2.0 4.0 0.00 0.00 0.00 90 1018.2
20260906071221 67 92 2.0 4.0 0.00 0.00 0.00 90 1018.2
20260906070715 67 92 1.0 4.0 0.00 0.00 0.00 90 1018.3
20260906070209 67 94 1.0 2.0 0.00 0.00 0.00 90 1018.4
20260906065702 67 94 1.0 2.0 0.00 0.00 0.00 90 1018.3
20260906065156 67 94 1.0 6.0 0.00 0.00 0.00 89 1018.5
20260906064651 67 94 1.0 6.0 0.00 0.00 0.00 89 1018.4
20260906064144 67 87 0.0 3.0 0.00 0.00 0.00 89 1018.4
20260906064126 67 84 0.0 0.0 0.00 0.00 0.00 89 1018.4
20260906063134 67 84 0.0 0.0 0.00 0.00 0.00 89 1018.4
20260906062627 67 84 0.0 0.0 0.00 0.00 0.00 88 1018.5
20260906062121 67 84 0.0 0.0 0.00 0.00 0.00 88 1018.5
20260906061837 67 84 0.0 0.0 0.00 0.00 0.00 88 1018.5
20260906061334 67 84 0.0 0.0 0.00 0.00 0.00 88 1018.4
20260906060602 67 84 0.0 0.0 0.00 0.00 0.00 87 1018.4
20260906060057 67 84 0.0 0.0 0.00 0.00 0.00 88 1018.4
20260906055550 67 84 0.0 0.0 0.00 0.00 0.00 87 1018.3
20260906055045 68 84 0.0 0.0 0.00 0.00 0.00 87 1018.4
20260906054539 68 84 0.0 0.0 0.00 0.00 0.00 87 1018.5
20260906054255 68 84 0.0 0.0 0.00 0.00 0.00 87 1018.3
20260906053527 68 84 0.0 0.0 0.00 0.00 0.00 87 1018.5
20260906053244 68 84 0.0 0.0 0.00 0.00 0.00 87 1018.4
20260906052514 68 84 0.0 0.0 0.00 0.00 0.00 88 1018.4
20260906052009 68 84 0.0 0.0 0.00 0.00 0.00 87 1018.4
20260906051503 68 84 0.0 0.0 0.00 0.00 0.00 87 1018.3
20260906051224 68 84 0.0 0.0 0.00 0.00 0.00 87 1018.2
20260906050451 69 84 0.0 0.0 0.00 0.00 0.00 87 1018.0
20260906045944 69 84 0.0 0.0 0.00 0.00 0.00 87 1018.1
20260906045440 69 84 0.0 0.0 0.00 0.00 0.00 87 1018.1
20260906044933 69 84 0.0 0.0 0.00 0.00 0.00 87 1018.1
20260906044426 69 84 0.0 0.0 0.00 0.00 0.00 86 1018.2
20260906043921 69 84 0.0 0.0 0.00 0.00 0.00 86 1018.1
20260906043416 69 84 0.0 0.0 0.00 0.00 0.00 86 1018.1
20260906042909 69 84 0.0 0.0 0.00 0.00 0.00 86 1018.2
20260906042628 69 84 0.0 0.0 0.00 0.00 0.00 86 1018.2
20260906041856 69 84 0.0 0.0 0.00 0.00 0.00 86 1018.2
20260906041351 69 84 0.0 0.0 0.00 0.00 0.00 86 1018.2
20260906041107 70 84 0.0 0.0 0.00 0.00 0.00 86 1018.4
20260906040340 70 84 0.0 0.0 0.00 0.00 0.00 86 1018.4
20260906035832 70 84 0.0 0.0 0.00 0.00 0.00 86 1018.3
20260906035328 70 84 0.0 0.0 0.00 0.00 0.00 86 1018.4
20260906035049 70 84 0.0 0.0 0.00 0.00 0.00 86 1018.1
20260906034315 70 84 0.0 0.0 0.00 0.00 0.00 86 1018.2
20260906033809 70 84 0.0 2.0 0.00 0.00 0.00 86 1018.1
20260906033302 70 84 1.0 3.0 0.00 0.00 0.00 86 1018.0
20260906032757 70 84 2.0 3.0 0.00 0.00 0.00 85 1018.0
20260906032250 71 84 2.0 3.0 0.00 0.00 0.00 85 1017.9
20260906031746 71 84 1.0 3.0 0.00 0.00 0.00 85 1017.8
20260906031459 71 84 2.0 3.0 0.00 0.00 0.00 85 1017.7
20260906030953 71 84 1.0 3.0 0.00 0.00 0.00 84 1017.6
20260906030228 71 84 1.0 2.0 0.00 0.00 0.00 84 1017.6
20260906025721 71 84 0.0 2.0 0.00 0.00 0.00 84 1017.5
20260906025214 71 84 0.0 0.0 0.00 0.00 0.00 84 1017.4
20260906024709 71 84 0.0 0.0 0.00 0.00 0.00 84 1017.5
20260906024203 72 84 1.0 3.0 0.00 0.00 0.00 84 1017.2
20260906023657 71 84 2.0 4.0 0.00 0.00 0.00 84 1017.2
20260906023150 71 84 2.0 6.0 0.00 0.00 0.00 84 1017.0
20260906022909 71 84 3.0 6.0 0.00 0.00 0.00 84 1017.0
20260906022140 71 83 2.0 6.0 0.00 0.00 0.00 84 1016.9
20260906021633 71 78 2.0 6.0 0.00 0.00 0.00 85 1016.9
20260906021127 71 89 1.0 4.0 0.00 0.00 0.00 84 1016.8
20260906020620 72 94 0.0 0.0 0.00 0.00 0.00 84 1016.8
20260906020314 72 94 0.0 0.0 0.00 0.00 0.00 84 1016.7
20260906020308 72 94 0.0 0.0 0.00 0.00 0.00 84 1016.8
20260906015104 72 94 0.0 0.0 0.00 0.00 0.00 83 1016.6
20260906014556 72 97 0.0 0.0 0.00 0.00 0.00 83 1016.4
20260906014051 73 97 0.0 0.0 0.00 0.00 0.00 83 1016.4
20260906013802 73 97 0.0 0.0 0.00 0.00 0.00 82 1016.3
20260906013039 73 97 0.0 0.0 0.00 0.00 0.00 82 1016.3
20260906012532 73 97 0.0 0.0 0.00 0.00 0.00 82 1016.1
20260906012027 73 97 0.0 0.0 0.00 0.00 0.00 82 1016.0
20260906011521 74 97 0.0 0.0 0.00 0.00 0.00 82 1015.9
20260906011014 74 97 0.0 0.0 0.00 0.00 0.00 82 1015.9
20260906010509 74 98 0.0 0.0 0.00 0.00 0.00 82 1015.9
20260906010006 74 98 0.0 0.0 0.00 0.00 0.00 82 1015.6
20260906005456 75 98 0.0 0.0 0.00 0.00 0.00 82 1015.5
20260906004951 75 98 0.0 0.0 0.00 0.00 0.00 82 1015.4
20260906004707 75 98 0.0 0.0 0.00 0.00 0.00 81 1015.3
20260906003940 75 98 0.0 0.0 0.00 0.00 0.00 81 1015.4
20260906003433 76 98 0.0 0.0 0.00 0.00 0.00 81 1015.3
20260906002926 76 98 0.0 0.0 0.00 0.00 0.00 80 1015.5
20260906002643 76 98 1.0 3.0 0.00 0.00 0.00 80 1015.4
20260906001916 76 98 2.0 4.0 0.00 0.00 0.00 80 1015.3
20260906001630 76 94 3.0 7.0 0.00 0.00 0.00 80 1015.2
20260906000902 76 92 3.0 7.0 0.00 0.00 0.00 79 1015.2
20260906000357 76 90 3.0 8.0 0.00 0.00 0.00 79 1015.3
20260905235850 76 81 4.0 9.0 0.00 0.00 0.00 79 1015.3
20260905235345 76 84 4.0 10.0 0.00 0.00 0.00 79 1015.3
20260905235056 76 71 4.0 10.0 0.00 0.00 0.00 79 1015.2
20260905234332 77 100 5.0 9.0 0.00 0.00 0.00 78 1015.2
20260905233827 77 84 5.0 11.0 0.00 0.00 0.00 78 1015.2
20260905233321 77 94 5.0 12.0 0.00 0.00 0.00 77 1015.2
20260905232814 77 94 5.0 13.0 0.00 0.00 0.00 77 1015.3
20260905232309 77 97 4.0 11.0 0.00 0.00 0.00 77 1015.4
20260905231802 77 86 3.0 8.0 0.00 0.00 0.00 77 1015.6
20260905231524 78 123 2.0 5.0 0.00 0.00 0.00 76 1015.5
20260905230750 78 51 2.0 8.0 0.00 0.00 0.00 76 1015.6
20260905230250 78 112 3.0 9.0 0.00 0.00 0.00 76 1015.6
20260905225750 78 101 2.0 9.0 0.00 0.00 0.00 76 1015.7
20260905225251 78 108 0.0 3.0 0.00 0.00 0.00 76 1015.8
20260905224751 78 105 1.0 4.0 0.00 0.00 0.00 76 1015.8
20260905224251 78 110 3.0 9.0 0.00 0.00 0.00 76 1015.8
20260905223750 78 84 4.0 9.0 0.00 0.00 0.00 76 1015.7
20260905223510 78 125 3.0 13.0 0.00 0.00 0.00 76 1015.7
20260905222749 78 99 3.0 13.0 0.00 0.00 0.00 76 1015.6
20260905222249 78 70 3.0 10.0 0.00 0.00 0.00 77 1015.6
20260905221749 78 130 4.0 10.0 0.00 0.00 0.00 76 1015.6
20260905221249 79 25 4.0 10.0 0.00 0.00 0.00 76 1015.7
20260905220749 79 83 4.0 10.0 0.00 0.00 0.00 76 1015.8
20260905220248 79 73 4.0 10.0 0.00 0.00 0.00 75 1015.7
20260905215745 79 87 3.0 8.0 0.00 0.00 0.00 76 1015.8
20260905215246 79 120 3.0 8.0 0.00 0.00 0.00 75 1015.8
20260905214745 80 78 2.0 8.0 0.00 0.00 0.00 75 1015.9
20260905214245 80 92 1.0 8.0 0.00 0.00 0.00 74 1016.0
20260905213744 80 76 2.0 8.0 0.00 0.00 0.00 75 1016.0
20260905213244 80 66 2.0 8.0 0.00 0.00 0.00 73 1016.0
20260905212745 80 75 3.0 8.0 0.00 0.00 0.00 73 1016.1
20260905212245 80 87 3.0 7.0 0.00 0.00 0.00 73 1016.2
20260905211745 80 90 3.0 8.0 0.00 0.00 0.00 73 1016.2
20260905211244 80 85 3.0 8.0 0.00 0.00 0.00 73 1016.3
20260905210745 81 83 3.0 7.0 0.00 0.00 0.00 73 1016.3
20260905210244 81 87 3.0 7.0 0.00 0.00 0.00 72 1016.4
20260905205745 81 85 2.0 7.0 0.00 0.00 0.00 73 1016.3
20260905205245 81 93 1.0 7.0 0.00 0.00 0.00 74 1016.3
20260905205010 81 65 0.0 4.0 0.00 0.00 0.00 72 1016.4
20260905204244 80 89 0.0 0.0 0.00 0.00 0.00 75 1016.4
20260905203744 80 80 0.0 0.0 0.00 0.00 0.00 77 1016.3
20260905203245 80 90 0.0 0.0 0.00 0.00 0.00 78 1016.4
20260905202737 80 90 0.0 0.0 0.00 0.00 0.00 75 1016.5
20260905202455 80 213 0.0 0.0 0.00 0.00 0.00 76 1016.4
20260905201726 80 209 0.0 0.0 0.00 0.00 0.00 75 1016.4
20260905201220 81 208 0.0 0.0 0.00 0.00 0.00 74 1016.5
20260905200714 81 182 0.0 0.0 0.00 0.00 0.00 75 1016.6
20260905200208 79 257 0.0 0.0 0.00 0.00 0.00 77 1016.5
20260905195923 79 257 0.0 0.0 0.00 0.00 0.00 77 1016.5
20260905195157 79 257 0.0 0.0 0.00 0.00 0.00 80 1016.6
20260905194910 79 257 0.0 0.0 0.00 0.00 0.00 80 1016.6
20260905194143 79 257 0.0 0.0 0.00 0.00 0.00 78 1016.6
20260905193856 79 257 0.0 0.0 0.00 0.00 0.00 76 1016.7
20260905193357 79 209 0.0 0.0 0.00 0.00 0.00 77 1016.8
20260905192625 79 271 0.0 0.0 0.00 0.00 0.00 77 1016.8
20260905192604 79 221 0.0 0.0 0.00 0.00 0.00 79 1016.8
20260905191613 79 221 0.0 0.0 0.00 0.00 0.00 77 1016.8
20260905191108 79 217 0.0 0.0 0.00 0.00 0.00 78 1017.0
20260905190602 79 216 0.0 0.0 0.00 0.00 0.00 79 1016.9
20260905190056 79 218 0.0 0.0 0.00 0.00 0.00 80 1017.0
20260905185550 79 209 0.0 0.0 0.00 0.00 0.00 80 1017.0
20260905185043 79 315 0.0 0.0 0.00 0.00 0.00 80 1017.0
20260905184759 79 315 0.0 0.0 0.00 0.00 0.00 79 1016.9
20260905184031 79 315 0.0 0.0 0.00 0.00 0.00 78 1017.0
20260905183526 79 205 1.0 5.0 0.00 0.00 0.00 79 1017.0
20260905183019 80 204 1.0 5.0 0.00 0.00 0.00 78 1016.9
20260905182514 80 163 1.0 5.0 0.00 0.00 0.00 74 1017.0
20260905182007 79 167 0.0 5.0 0.00 0.00 0.00 75 1017.1
20260905181501 78 98 0.0 3.0 0.00 0.00 0.00 78 1017.1
20260905180956 78 84 1.0 3.0 0.00 0.00 0.00 78 1017.0
20260905180450 78 85 1.0 4.0 0.00 0.00 0.00 78 1017.1
20260905175943 78 93 1.0 4.0 0.00 0.00 0.00 81 1017.1
20260905175438 78 119 0.0 3.0 0.00 0.00 0.00 81 1017.1
20260905174932 77 166 1.0 4.0 0.00 0.00 0.00 82 1017.2
20260905174426 77 166 1.0 4.0 0.00 0.00 0.00 81 1017.2
20260905173920 77 166 1.0 4.0 0.00 0.00 0.00 80 1017.3
20260905173414 77 151 1.0 3.0 0.00 0.00 0.00 81 1017.3
20260905172907 76 57 1.0 4.0 0.00 0.00 0.00 82 1017.2
20260905172403 76 96 1.0 4.0 0.00 0.00 0.00 81 1017.2
20260905171855 76 107 1.0 4.0 0.00 0.00 0.00 82 1017.3
20260905171350 76 104 1.0 4.0 0.00 0.00 0.00 81 1017.3
20260905170845 76 93 1.0 4.0 0.00 0.00 0.00 82 1017.3
20260905170338 76 88 0.0 4.0 0.00 0.00 0.00 84 1017.4
20260905165832 75 32 0.0 2.0 0.00 0.00 0.00 84 1017.4
20260905165550 75 32 1.0 2.0 0.00 0.00 0.00 84 1017.5
20260905164820 75 36 1.0 3.0 0.00 0.00 0.00 85 1017.5
20260905164314 75 35 1.0 3.0 0.00 0.00 0.00 86 1017.5
20260905163807 75 68 1.0 2.0 0.00 0.00 0.00 86 1017.6
20260905163301 74 89 0.0 2.0 0.00 0.00 0.00 85 1017.5
20260905162757 74 88 0.0 3.0 0.00 0.00 0.00 86 1017.5
20260905162249 74 89 0.0 3.0 0.00 0.00 0.00 86 1017.5
20260905161743 74 97 0.0 0.0 0.00 0.00 0.00 86 1017.5
20260905161238 74 97 1.0 2.0 0.00 0.00 0.00 86 1017.5
20260905160731 74 97 1.0 3.0 0.00 0.00 0.00 86 1017.4
20260905160446 74 95 1.0 3.0 0.00 0.00 0.00 86 1017.4
20260905155719 74 95 1.0 4.0 0.00 0.00 0.00 85 1017.4
20260905155214 74 95 1.0 4.0 0.00 0.00 0.00 86 1017.4
20260905154707 74 94 1.0 4.0 0.00 0.00 0.00 86 1017.3
20260905154202 74 94 1.0 6.0 0.00 0.00 0.00 86 1017.3
20260905153656 73 348 1.0 6.0 0.00 0.00 0.00 86 1017.4
20260905153149 73 348 2.0 6.0 0.00 0.00 0.00 86 1017.3
20260905152643 73 95 2.0 6.0 0.00 0.00 0.00 86 1017.2
20260905152137 73 41 2.0 7.0 0.00 0.00 0.00 86 1017.1
20260905151632 73 85 3.0 7.0 0.00 0.00 0.00 86 1017.0
20260905151126 73 97 3.0 8.0 0.00 0.00 0.00 86 1016.8
20260905150620 73 95 3.0 8.0 0.00 0.00 0.00 86 1016.7
20260905150114 73 74 2.0 6.0 0.00 0.00 0.00 86 1016.9
20260905145830 73 69 2.0 6.0 0.00 0.00 0.00 87 1017.0
20260905145102 73 14 1.0 4.0 0.00 0.00 0.00 87 1016.9
20260905144556 73 78 1.0 3.0 0.00 0.00 0.00 87 1016.9
20260905144051 73 73 2.0 6.0 0.00 0.00 0.00 87 1016.9
20260905143544 73 65 2.0 6.0 0.00 0.00 0.00 87 1016.8
20260905143037 73 101 2.0 7.0 0.00 0.00 0.00 87 1016.7
20260905142536 73 86 2.0 7.0 0.00 0.00 0.00 87 1016.7
20260905142037 73 87 1.0 7.0 0.00 0.00 0.00 87 1016.7
20260905141533 73 87 1.0 7.0 0.00 0.00 0.00 87 1016.7
20260905141033 73 78 1.0 2.0 0.00 0.00 0.00 88 1016.7
20260905140533 73 77 0.0 2.0 0.00 0.00 0.00 88 1016.5
20260905140031 73 77 0.0 2.0 0.00 0.00 0.00 88 1016.4
20260905135529 73 77 1.0 4.0 0.00 0.00 0.00 88 1016.4
20260905135028 73 89 1.0 4.0 0.00 0.00 0.00 88 1016.3
20260905134525 72 89 2.0 4.0 0.00 0.00 0.00 87 1016.2
20260905134023 72 88 3.0 6.0 0.00 0.00 0.00 87 1016.0
20260905133523 72 95 2.0 6.0 0.00 0.00 0.00 87 1016.0
20260905133025 72 90 2.0 6.0 0.00 0.01 0.00 88 1016.0
20260905132523 72 80 2.0 5.0 0.00 0.01 0.00 88 1016.0
20260905132024 72 96 2.0 8.0 0.00 0.01 0.00 88 1015.8
20260905131747 72 46 2.0 8.0 0.00 0.01 0.00 88 1015.7
20260905131019 72 98 2.0 4.0 0.00 0.02 0.00 88 1015.6
20260905130519 72 93 2.0 7.0 0.00 0.02 0.00 88 1015.6
20260905130019 72 86 2.0 7.0 0.00 0.02 0.00 88 1015.6